Weather History for Price, UT

Change the Weather History Date:

Tuesday, February 12, 2013

  Actual Average Record
Temperature  
Mean Temperature 22 °F -  
Max Temperature 32 °F 36 °F 59 °F (1970)
Min Temperature 12 °F 18 °F 5 °F (1974)
Degree Days  
Heating Degree Days 43    
Moisture  
Dew Point 8 °F    
Average Humidity 52    
Maximum Humidity 62    
Minimum Humidity 43    
Precipitation  
Precipitation 0.00 in - - ()
Sea Level Pressure  
Sea Level Pressure 30.33 in    
Wind  
Wind Speed 7 mph (NNW)    
Max Wind Speed 17 mph    
Max Gust Speed 23 mph    
Visibility 10 miles    
Events      
Averages and records for this station are not official NWS values.
T = Trace of Precipitation, MM = Missing Value Source: NWS Daily Summary

Daily Weather History Graph

Daily Weather History Graph

Search for Another Location

Airport:

Trip Planner

Search our weather history database for the weather conditions in past years. The results will help you decide how hot, cold, wet, or windy it might be!

Date:

Astronomy

Feb. 12, 2013 Rise Set
Actual Time 7:18 AM MST 5:56 PM MST
Civil Twilight 6:50 AM MST 6:24 PM MST
Nautical Twilight 6:19 AM MST 6:55 PM MST
Astronomical Twilight 5:47 AM MST 7:27 PM MST
Moon 8:18 AM MST (2/12) 9:00 PM MST (2/12)
Length of Visible Light 11h 33m
Length of Day
10h 37m
Waxing Crescent, 8% of the Moon is Illuminated
Feb 12
Waxing Crescent
Feb 17
First Quarter
Feb 25
Full
Mar 4
Last Quarter
Mar 11
New

Hourly Weather History & Observations

Time (MST) Temp. Windchill Dew Point Humidity Pressure Visibility Wind Dir Wind Speed Gust Speed Precip Events Conditions
12:53 AM 19.9 °F 8.6 °F 3.0 °F 48% 30.25 in 10.0 mi NW 10.4 mph - N/A   Clear
1:53 AM 17.1 °F 10.0 °F 1.9 °F 52% 30.26 in 10.0 mi NW 4.6 mph - N/A   Clear
2:53 AM 19.0 °F 8.2 °F 3.0 °F 50% 30.26 in 10.0 mi NNW 9.2 mph - N/A   Clear
3:53 AM 16.0 °F 4.4 °F 3.0 °F 57% 30.28 in 10.0 mi North 9.2 mph - N/A   Clear
4:53 AM 15.1 °F 6.4 °F 1.9 °F 56% 30.29 in 10.0 mi North 5.8 mph - N/A   Clear
5:53 AM 12.9 °F 3.8 °F 1.9 °F 62% 30.33 in 10.0 mi NNE 5.8 mph - N/A   Clear
6:53 AM 12.9 °F 2.6 °F 1.9 °F 62% 30.35 in 10.0 mi NNE 6.9 mph - N/A   Clear
7:53 AM 16.0 °F - 3.0 °F 57% 30.36 in 10.0 mi Calm Calm - N/A   Clear
8:53 AM 18.0 °F 11.1 °F 3.0 °F 52% 30.38 in 10.0 mi South 4.6 mph - N/A   Clear
9:53 AM 19.9 °F 14.9 °F 5.0 °F 52% 30.39 in 10.0 mi SSE 3.5 mph - N/A   Clear
10:53 AM 24.1 °F 19.7 °F 6.1 °F 46% 30.37 in 10.0 mi South 3.5 mph - N/A   Clear
11:53 AM 26.1 °F 20.5 °F 6.1 °F 43% 30.36 in 10.0 mi South 4.6 mph - N/A   Clear
12:53 PM 28.0 °F 20.8 °F 10.0 °F 47% 30.32 in 10.0 mi South 6.9 mph - N/A   Clear
1:53 PM 30.0 °F 26.5 °F 12.0 °F 47% 30.31 in 10.0 mi Variable 3.5 mph - N/A   Clear
2:53 PM 32.0 °F - 12.0 °F 44% 30.28 in 10.0 mi Calm Calm - N/A   Partly Cloudy
3:53 PM 32.0 °F 28.7 °F 12.9 °F 45% 30.30 in 10.0 mi Variable 3.5 mph - N/A   Clear
4:53 PM 30.0 °F 21.1 °F 12.9 °F 49% 30.31 in 10.0 mi East 10.4 mph - N/A   Clear
5:53 PM 27.0 °F 23.0 °F 12.0 °F 53% 30.35 in 10.0 mi ENE 3.5 mph - N/A   Clear
6:53 PM 28.0 °F 15.7 °F 12.9 °F 53% 30.37 in 10.0 mi NW 17.3 mph 23.0 mph N/A   Clear
7:53 PM 28.0 °F 16.5 °F 14.0 °F 56% 30.36 in 10.0 mi NNW 15.0 mph 20.7 mph N/A   Partly Cloudy
8:53 PM 28.0 °F 22.8 °F 12.9 °F 53% 30.35 in 10.0 mi Variable 4.6 mph - N/A   Clear
9:53 PM 27.0 °F 16.1 °F 14.0 °F 58% 30.36 in 10.0 mi NW 12.7 mph - N/A   Clear
10:53 PM 28.0 °F 18.6 °F 14.0 °F 56% 30.35 in 10.0 mi WNW 10.4 mph 23.0 mph N/A   Clear
11:53 PM 28.0 °F 18.1 °F 14.0 °F 56% 30.33 in 10.0 mi NW 11.5 mph 18.4 mph N/A   Partly Cloudy